| time (UTC) | temp C | wind direction | speed KPH | gust KPH | rain 1hr cm | rain 24hr cm | rain mn cm | humidity % | barometer mb |
| 20260506134527 | 10 | 177 | 4.8 | 19.3 | 0.00 | 0.00 | 0.00 | 94 | 1017.3 |
| 20260506133026 | 10 | 166 | 6.4 | 22.5 | 0.00 | 0.00 | 0.00 | 94 | 1017.0 |
| 20260506131530 | 10 | 236 | 6.4 | 16.1 | 0.00 | 0.00 | 0.00 | 93 | 1017.1 |
| 20260506130023 | 11 | 131 | 8.0 | 24.1 | 0.00 | 0.00 | 0.00 | 93 | 1017.4 |
| 20260506124521 | 11 | 143 | 9.7 | 24.1 | 0.00 | 0.00 | 0.00 | 94 | 1017.3 |
| 20260506123021 | 11 | 134 | 6.4 | 19.3 | 0.00 | 0.00 | 0.00 | 94 | 1017.4 |
| 20260506121516 | 10 | 158 | 6.4 | 16.1 | 0.00 | 0.00 | 0.00 | 94 | 1016.9 |
| 20260506120012 | 11 | 162 | 8.0 | 17.7 | 0.00 | 0.00 | 0.00 | 93 | 1016.7 |
| 20260506114512 | 11 | 174 | 6.4 | 20.9 | 0.00 | 0.00 | 0.00 | 93 | 1016.7 |
| 20260506113010 | 11 | 161 | 8.0 | 22.5 | 0.00 | 0.00 | 0.00 | 93 | 1016.7 |
| 20260506111506 | 11 | 155 | 11.3 | 20.9 | 0.00 | 0.00 | 0.00 | 93 | 1016.6 |
| 20260506110004 | 11 | 125 | 8.0 | 16.1 | 0.00 | 0.00 | 0.00 | 92 | 1016.3 |
| 20260506104602 | 11 | 131 | 4.8 | 11.3 | 0.00 | 0.00 | 0.00 | 92 | 1016.1 |
| 20260506103058 | 11 | 143 | 3.2 | 11.3 | 0.00 | 0.00 | 0.00 | 92 | 1015.8 |
| 20260506101556 | 11 | 221 | 3.2 | 9.7 | 0.00 | 0.00 | 0.00 | 91 | 1015.6 |
| 20260506100055 | 11 | 116 | 4.8 | 14.5 | 0.00 | 0.00 | 0.00 | 91 | 1015.6 |
| 20260506094551 | 11 | 148 | 4.8 | 14.5 | 0.00 | 0.00 | 0.00 | 91 | 1015.5 |
| 20260506093051 | 11 | 125 | 4.8 | 20.9 | 0.00 | 0.00 | 0.00 | 91 | 1015.5 |
| 20260506091546 | 12 | 208 | 4.8 | 14.5 | 0.00 | 0.00 | 0.00 | 90 | 1015.3 |
| 20260506090043 | 12 | 98 | 3.2 | 16.1 | 0.00 | 0.00 | 0.00 | 89 | 1015.3 |
| 20260506084540 | 12 | 120 | 4.8 | 17.7 | 0.00 | 0.00 | 0.00 | 88 | 1015.2 |
| 20260506083042 | 12 | 139 | 8.0 | 19.3 | 0.00 | 0.00 | 0.00 | 88 | 1015.2 |
| 20260506081533 | 12 | 166 | 6.4 | 17.7 | 0.00 | 0.00 | 0.00 | 87 | 1015.2 |
| 20260506073026 | 12 | 169 | 6.4 | 14.5 | 0.00 | 0.00 | 0.00 | 87 | 1014.8 |
| 20260506071525 | 13 | 83 | 4.8 | 14.5 | 0.00 | 0.00 | 0.00 | 86 | 1014.7 |
| 20260506061529 | 13 | 188 | 3.2 | 14.5 | 0.00 | 0.00 | 0.00 | 86 | 1014.3 |
| 20260506044520 | 13 | 129 | 6.4 | 19.3 | 0.00 | 0.00 | 0.00 | 85 | 1014.1 |
| 20260506043016 | 14 | 174 | 6.4 | 16.1 | 0.00 | 0.00 | 0.00 | 85 | 1013.9 |
| 20260506041513 | 14 | 143 | 8.0 | 17.7 | 0.00 | 0.00 | 0.00 | 85 | 1013.8 |
| 20260506040015 | 15 | 168 | 6.4 | 17.7 | 0.00 | 0.00 | 0.00 | 84 | 1013.5 |
| 20260506034512 | 15 | 140 | 6.4 | 16.1 | 0.00 | 0.00 | 0.00 | 83 | 1013.4 |
| 20260506033011 | 15 | 144 | 3.2 | 11.3 | 0.00 | 0.00 | 0.00 | 82 | 1013.3 |
| 20260506031514 | 16 | 155 | 3.2 | 12.9 | 0.00 | 0.00 | 0.00 | 80 | 1013.1 |
| 20260506030008 | 16 | 131 | 3.2 | 14.5 | 0.00 | 0.00 | 0.00 | 79 | 1013.1 |
| 20260506024509 | 17 | 146 | 4.8 | 16.1 | 0.00 | 0.00 | 0.00 | 77 | 1013.0 |
| 20260506023008 | 17 | 204 | 4.8 | 16.1 | 0.00 | 0.00 | 0.00 | 76 | 1013.1 |
| 20260506021507 | 17 | 183 | 6.4 | 14.5 | 0.00 | 0.00 | 0.00 | 75 | 1013.1 |
| 20260506020005 | 17 | 153 | 4.8 | 17.7 | 0.00 | 0.00 | 0.00 | 74 | 1013.1 |
| 20260506014510 | 17 | 164 | 6.4 | 17.7 | 0.00 | 0.00 | 0.00 | 75 | 1013.2 |
| 20260506013003 | 17 | 110 | 6.4 | 19.3 | 0.00 | 0.00 | 0.00 | 74 | 1013.0 |
| 20260506011503 | 18 | 68 | 8.0 | 20.9 | 0.00 | 0.00 | 0.00 | 74 | 1013.0 |
| 20260506010002 | 18 | 158 | 8.0 | 16.1 | 0.00 | 0.00 | 0.00 | 75 | 1013.0 |
| 20260506004628 | 18 | 110 | 4.8 | 14.5 | 0.00 | 0.00 | 0.00 | 75 | 1013.0 |
| 20260506003100 | 18 | 121 | 6.4 | 16.1 | 0.00 | 0.00 | 0.00 | 74 | 1013.1 |
| 20260506001600 | 18 | 181 | 8.0 | 19.3 | 0.00 | 0.00 | 0.00 | 73 | 1013.2 |
| 20260506000056 | 18 | 167 | 6.4 | 17.7 | 0.00 | 0.00 | 0.00 | 74 | 1013.2 |
| 20260505234614 | 18 | 181 | 6.4 | 19.3 | 0.00 | 0.00 | 0.00 | 75 | 1013.4 |
| 20260505233054 | 17 | 134 | 6.4 | 16.1 | 0.00 | 0.00 | 0.00 | 75 | 1013.6 |
| 20260505231553 | 17 | 150 | 6.4 | 19.3 | 0.00 | 0.00 | 0.00 | 75 | 1013.7 |
| 20260505230053 | 17 | 163 | 4.8 | 14.5 | 0.00 | 0.00 | 0.00 | 75 | 1013.8 |
| 20260505224550 | 17 | 166 | 4.8 | 14.5 | 0.00 | 0.00 | 0.00 | 77 | 1013.9 |
| 20260505223100 | 17 | 156 | 6.4 | 14.5 | 0.00 | 0.00 | 0.00 | 77 | 1014.0 |
| 20260505221604 | 17 | 177 | 4.8 | 14.5 | 0.00 | 0.00 | 0.00 | 77 | 1014.1 |
| 20260505220057 | 17 | 172 | 6.4 | 16.1 | 0.00 | 0.00 | 0.00 | 78 | 1014.2 |
| 20260505214602 | 17 | 172 | 4.8 | 17.7 | 0.00 | 0.00 | 0.00 | 79 | 1014.3 |
| 20260505213046 | 16 | 155 | 4.8 | 12.9 | 0.00 | 0.00 | 0.00 | 79 | 1014.4 |
| 20260505211542 | 16 | 154 | 4.8 | 17.7 | 0.00 | 0.00 | 0.00 | 79 | 1014.5 |
| 20260505210042 | 16 | 167 | 6.4 | 16.1 | 0.00 | 0.00 | 0.00 | 79 | 1014.5 |
| 20260505204539 | 16 | 162 | 4.8 | 14.5 | 0.00 | 0.00 | 0.00 | 80 | 1014.6 |
| 20260505203037 | 16 | 141 | 4.8 | 12.9 | 0.00 | 0.00 | 0.00 | 80 | 1014.7 |
| 20260505201534 | 16 | 168 | 6.4 | 16.1 | 0.00 | 0.00 | 0.00 | 80 | 1014.7 |
| 20260505200036 | 15 | 143 | 3.2 | 14.5 | 0.00 | 0.00 | 0.00 | 81 | 1014.7 |
| 20260505194533 | 15 | 77 | 6.4 | 12.9 | 0.00 | 0.00 | 0.00 | 81 | 1014.7 |
| 20260505193033 | 15 | 100 | 4.8 | 12.9 | 0.00 | 0.00 | 0.00 | 82 | 1014.7 |
| 20260505191532 | 15 | 170 | 4.8 | 17.7 | 0.00 | 0.00 | 0.00 | 82 | 1014.7 |
| 20260505190032 | 15 | 130 | 6.4 | 20.9 | 0.00 | 0.00 | 0.00 | 82 | 1014.7 |
| 20260505184531 | 15 | 101 | 3.2 | 17.7 | 0.00 | 0.00 | 0.00 | 83 | 1014.8 |
| 20260505183041 | 15 | 242 | 6.4 | 20.9 | 0.00 | 0.00 | 0.00 | 83 | 1014.8 |
| 20260505181528 | 15 | 156 | 6.4 | 17.7 | 0.00 | 0.00 | 0.00 | 84 | 1014.6 |
| 20260505180028 | 14 | 103 | 4.8 | 14.5 | 0.00 | 0.00 | 0.00 | 85 | 1014.6 |
| 20260505174527 | 14 | 152 | 4.8 | 19.3 | 0.00 | 0.00 | 0.00 | 86 | 1014.7 |
| 20260505173032 | 13 | 113 | 4.8 | 14.5 | 0.00 | 0.00 | 0.00 | 86 | 1014.7 |
| 20260505171525 | 13 | 165 | 6.4 | 12.9 | 0.00 | 0.00 | 0.00 | 86 | 1014.6 |
| 20260505170027 | 13 | 184 | 3.2 | 11.3 | 0.00 | 0.00 | 0.00 | 87 | 1014.6 |
| 20260505164524 | 13 | 127 | 4.8 | 16.1 | 0.00 | 0.00 | 0.00 | 87 | 1014.6 |
| 20260505163023 | 13 | 195 | 8.0 | 16.1 | 0.00 | 0.00 | 0.00 | 88 | 1014.6 |
| 20260505161527 | 13 | 197 | 6.4 | 14.5 | 0.00 | 0.00 | 0.00 | 88 | 1014.6 |
| 20260505153019 | 12 | 96 | 4.8 | 16.1 | 0.00 | 0.00 | 0.00 | 91 | 1014.3 |
| 20260505151517 | 12 | 139 | 6.4 | 16.1 | 0.00 | 0.00 | 0.00 | 91 | 1014.2 |